User: anonymous   Login
Location: Irma
(52.9170°N, 111.2330°W)
Time: 01:00:55
(UTC-07:00)
Language:

Cosmos 1633 Rocket - Orbit

View from above orbital plane
View from above orbital plane
View from above satellite
View from above satellite

Ground track
Ground track

The orbit data is extracted from the following two-line orbital elements,

1 15593U 85020B   14353.55512799  .00000713  00000-0  83020-4 0  8466
2 15593 082.5372 034.6243 0012661 160.9161 352.3525 14.83877522609304
Epoch (UTC): 19 December 2014 13:19:23
Eccentricity: 0.0012661
inclination: 82.5372°
perigee height: 608 km
apogee height: 626 km
right ascension of ascending node: 34.6243°
argument of perigee: 160.9161°
revolutions per day: 14.83877522
mean anomaly at epoch: 352.3525°
orbit number at epoch: 60930

The dashed part of the orbit path shows where the satellite is in the earth's shadow,  

DLR